Time,TemperatureF,DewpointF,PressureIn,WindDirection,WindDirectionDegrees,WindSpeedMPH,WindSpeedGustMPH,Humidity,HourlyPrecipIn,Conditions,Clouds,dailyrainin,SoftwareType,DateUTC
2013-08-12 00:03:00,69.4,67.0,29.83,West,270,0.0,-999.0,92,-99.99,,,0.00,Acu-Link.com,2013-08-12 04:03:00,
2013-08-12 00:18:00,69.4,67.0,29.82,West,270,0.0,-999.0,92,-99.99,,,0.00,Acu-Link.com,2013-08-12 04:18:00,
2013-08-12 00:34:00,69.1,66.7,29.82,NE,45,0.0,-999.0,92,-99.99,,,0.00,Acu-Link.com,2013-08-12 04:34:00,
2013-08-12 00:49:00,69.1,66.7,29.81,East,90,0.0,-999.0,92,-99.99,,,0.00,Acu-Link.com,2013-08-12 04:49:00,
2013-08-12 01:04:00,68.9,66.5,29.81,NNE,22,0.0,-999.0,92,-99.99,,,0.00,Acu-Link.com,2013-08-12 05:04:00,
2013-08-12 01:19:00,68.7,66.3,29.81,NE,45,0.0,-999.0,92,-99.99,,,0.00,Acu-Link.com,2013-08-12 05:19:00,
2013-08-12 01:34:00,68.7,66.3,29.81,NNW,337,0.0,-999.0,92,-99.99,,,0.00,Acu-Link.com,2013-08-12 05:34:00,
2013-08-12 01:49:00,68.7,66.3,29.81,NNW,337,0.0,-999.0,92,-99.99,,,0.00,Acu-Link.com,2013-08-12 05:49:00,
2013-08-12 02:04:00,68.7,66.3,29.80,SSE,157,0.0,-999.0,92,-99.99,,,0.00,Acu-Link.com,2013-08-12 06:04:00,
2013-08-12 02:19:00,68.7,66.3,29.80,SW,225,0.0,-999.0,92,-99.99,,,0.00,Acu-Link.com,2013-08-12 06:19:00,
2013-08-12 02:35:00,68.7,66.3,29.79,ENE,67,0.0,-999.0,92,-99.99,,,0.00,Acu-Link.com,2013-08-12 06:35:00,
2013-08-12 02:50:00,68.7,66.3,29.80,NE,45,0.0,-999.0,92,-99.99,,,0.00,Acu-Link.com,2013-08-12 06:50:00,
2013-08-12 03:06:00,68.7,66.3,29.80,East,90,0.0,-999.0,92,-99.99,,,0.00,Acu-Link.com,2013-08-12 07:06:00,
2013-08-12 03:21:00,68.2,65.8,29.79,NNW,337,0.0,-999.0,92,-99.99,,,0.00,Acu-Link.com,2013-08-12 07:21:00,
2013-08-12 03:36:00,68.2,65.8,29.79,SSW,202,0.0,-999.0,92,-99.99,,,0.00,Acu-Link.com,2013-08-12 07:36:00,
2013-08-12 03:52:00,68.2,65.8,29.79,SSW,202,0.0,-999.0,92,-99.99,,,0.00,Acu-Link.com,2013-08-12 07:52:00,
2013-08-12 04:07:00,68.2,65.8,29.79,ENE,67,0.0,-999.0,92,-99.99,,,0.00,Acu-Link.com,2013-08-12 08:07:00,
2013-08-12 04:22:00,68.2,65.8,29.79,ENE,67,0.0,-999.0,92,-99.99,,,0.00,Acu-Link.com,2013-08-12 08:22:00,
2013-08-12 04:37:00,68.2,65.8,29.79,ENE,67,0.0,-999.0,92,-99.99,,,0.00,Acu-Link.com,2013-08-12 08:37:00,
2013-08-12 04:52:00,68.2,65.8,29.79,NE,45,0.0,-999.0,92,-99.99,,,0.00,Acu-Link.com,2013-08-12 08:52:00,
2013-08-12 05:07:00,68.7,66.3,29.79,NE,45,0.0,-999.0,92,-99.99,,,0.00,Acu-Link.com,2013-08-12 09:07:00,
2013-08-12 05:23:00,68.4,66.0,29.79,NE,45,0.0,-999.0,92,-99.99,,,0.00,Acu-Link.com,2013-08-12 09:23:00,
2013-08-12 05:38:00,68.2,65.8,29.80,NNW,337,0.0,-999.0,92,-99.99,,,0.00,Acu-Link.com,2013-08-12 09:38:00,
2013-08-12 05:53:00,68.0,65.6,29.80,West,270,0.0,-999.0,92,-99.99,,,0.00,Acu-Link.com,2013-08-12 09:53:00,
2013-08-12 06:08:00,67.5,65.1,29.80,NE,45,0.0,-999.0,92,-99.99,,,0.00,Acu-Link.com,2013-08-12 10:08:00,
2013-08-12 06:23:00,67.5,65.1,29.80,NE,45,2.7,-999.0,92,-99.99,,,0.00,Acu-Link.com,2013-08-12 10:23:00,
2013-08-12 06:39:00,67.5,65.1,29.80,NE,45,0.0,-999.0,92,-99.99,,,0.00,Acu-Link.com,2013-08-12 10:39:00,
2013-08-12 06:54:00,67.5,65.1,29.81,ENE,67,0.0,-999.0,92,-99.99,,,0.00,Acu-Link.com,2013-08-12 10:54:00,
2013-08-12 07:09:00,67.5,65.1,29.80,NNW,337,0.0,-999.0,92,-99.99,,,0.00,Acu-Link.com,2013-08-12 11:09:00,
2013-08-12 07:25:00,67.6,65.2,29.80,NE,45,0.0,-999.0,92,-99.99,,,0.00,Acu-Link.com,2013-08-12 11:25:00,
2013-08-12 07:40:00,67.8,65.4,29.81,NE,45,0.0,-999.0,92,-99.99,,,0.00,Acu-Link.com,2013-08-12 11:40:00,
2013-08-12 07:55:00,68.0,65.6,29.81,NE,45,0.0,-999.0,92,-99.99,,,0.00,Acu-Link.com,2013-08-12 11:55:00,
2013-08-12 08:10:00,68.2,65.8,29.80,WNW,292,2.2,-999.0,92,-99.99,,,0.00,Acu-Link.com,2013-08-12 12:10:00,
2013-08-12 08:25:00,68.4,66.0,29.81,NW,315,2.2,-999.0,92,-99.99,,,0.00,Acu-Link.com,2013-08-12 12:25:00,
2013-08-12 08:41:00,69.1,66.4,29.80,NE,45,0.0,-999.0,91,-99.99,,,0.00,Acu-Link.com,2013-08-12 12:41:00,
2013-08-12 08:56:00,69.4,66.7,29.80,NE,45,0.0,-999.0,91,-99.99,,,0.00,Acu-Link.com,2013-08-12 12:56:00,
2013-08-12 09:11:00,70.0,66.9,29.80,NE,45,2.7,-999.0,90,-99.99,,,0.00,Acu-Link.com,2013-08-12 13:11:00,
2013-08-12 09:26:00,70.3,67.2,29.80,NE,45,0.0,-999.0,90,-99.99,,,0.00,Acu-Link.com,2013-08-12 13:26:00,
2013-08-12 09:42:00,71.1,68.0,29.80,NNW,337,0.0,-999.0,90,-99.99,,,0.00,Acu-Link.com,2013-08-12 13:42:00,
2013-08-12 09:57:00,71.8,68.7,29.81,NNE,22,1.7,-999.0,90,-99.99,,,0.00,Acu-Link.com,2013-08-12 13:57:00,
2013-08-12 10:12:00,73.0,69.6,29.81,East,90,2.7,-999.0,89,-99.99,,,0.00,Acu-Link.com,2013-08-12 14:12:00,
2013-08-12 10:27:00,73.6,70.1,29.81,SW,225,0.0,-999.0,89,-99.99,,,0.00,Acu-Link.com,2013-08-12 14:27:00,
2013-08-12 10:42:00,73.8,70.0,29.81,NNW,337,0.0,-999.0,88,-99.99,,,0.00,Acu-Link.com,2013-08-12 14:42:00,
2013-08-12 10:58:00,74.7,70.9,29.81,NE,45,0.0,-999.0,88,-99.99,,,0.00,Acu-Link.com,2013-08-12 14:58:00,
2013-08-12 11:13:00,75.2,71.1,29.81,NW,315,0.0,-999.0,87,-99.99,,,0.00,Acu-Link.com,2013-08-12 15:13:00,
2013-08-12 11:28:00,76.6,72.1,29.81,East,90,0.0,-999.0,86,-99.99,,,0.00,Acu-Link.com,2013-08-12 15:28:00,
2013-08-12 11:43:00,77.0,72.5,29.81,WNW,292,0.0,-999.0,86,-99.99,,,0.00,Acu-Link.com,2013-08-12 15:43:00,
2013-08-12 11:59:00,77.4,72.9,29.80,NE,45,0.0,-999.0,86,-99.99,,,0.00,Acu-Link.com,2013-08-12 15:59:00,
2013-08-12 12:14:00,78.6,74.0,29.79,ENE,67,0.0,-999.0,86,-99.99,,,0.00,Acu-Link.com,2013-08-12 16:14:00,
2013-08-12 12:29:00,79.0,73.4,29.79,SSW,202,3.2,-999.0,83,-99.99,,,0.00,Acu-Link.com,2013-08-12 16:29:00,
2013-08-12 12:45:00,80.2,73.8,29.80,SW,225,2.7,-999.0,81,-99.99,,,0.00,Acu-Link.com,2013-08-12 16:45:00,
2013-08-12 13:00:00,80.2,73.1,29.79,SSW,202,3.7,-999.0,79,-99.99,,,0.00,Acu-Link.com,2013-08-12 17:00:00,
2013-08-12 13:15:00,81.3,73.4,29.78,SSW,202,2.7,-999.0,77,-99.99,,,0.00,Acu-Link.com,2013-08-12 17:15:00,
2013-08-12 13:30:00,81.3,72.2,29.78,East,90,0.0,-999.0,74,-99.99,,,0.00,Acu-Link.com,2013-08-12 17:30:00,
2013-08-12 13:45:00,78.8,70.6,29.77,East,90,2.7,-999.0,76,-99.99,,,0.00,Acu-Link.com,2013-08-12 17:45:00,
2013-08-12 14:00:00,79.7,69.9,29.77,East,90,2.7,-999.0,72,-99.99,,,0.00,Acu-Link.com,2013-08-12 18:00:00,
2013-08-12 14:16:00,79.9,72.0,29.76,East,90,1.7,-999.0,77,-99.99,,,0.00,Acu-Link.com,2013-08-12 18:16:00,
2013-08-12 14:31:00,80.2,73.5,29.75,SW,225,0.0,-999.0,80,-99.99,,,0.00,Acu-Link.com,2013-08-12 18:31:00,
2013-08-12 14:47:00,75.0,71.2,29.74,NW,315,0.0,-999.0,88,-99.99,,,0.05,Acu-Link.com,2013-08-12 18:47:00,
2013-08-12 15:02:00,73.6,70.1,29.74,WNW,292,0.0,-999.0,89,-99.99,,,0.11,Acu-Link.com,2013-08-12 19:02:00,
2013-08-12 15:17:00,72.3,69.2,29.74,SSW,202,3.2,-999.0,90,-99.99,,,0.21,Acu-Link.com,2013-08-12 19:17:00,
2013-08-12 16:20:00,70.3,67.2,29.75,West,270,1.1,-999.0,90,-99.99,,,0.29,Acu-Link.com,2013-08-12 20:20:00,
2013-08-12 16:35:00,69.4,66.7,29.76,SSW,202,0.0,-999.0,91,-99.99,,,0.29,Acu-Link.com,2013-08-12 20:35:00,
2013-08-12 16:50:00,69.4,66.7,29.75,SW,225,0.0,-999.0,91,-99.99,,,0.29,Acu-Link.com,2013-08-12 20:50:00,
2013-08-12 17:05:00,68.9,66.2,29.74,WNW,292,0.0,-999.0,91,-99.99,,,0.29,Acu-Link.com,2013-08-12 21:05:00,
2013-08-12 17:20:00,69.3,66.2,29.73,SSW,202,2.2,-999.0,90,-99.99,,,0.29,Acu-Link.com,2013-08-12 21:20:00,
2013-08-12 17:36:00,69.8,66.7,29.74,SW,225,0.0,-999.0,90,-99.99,,,0.29,Acu-Link.com,2013-08-12 21:36:00,
2013-08-12 17:51:00,70.0,67.2,29.73,ESE,112,0.0,-999.0,91,-99.99,,,0.29,Acu-Link.com,2013-08-12 21:51:00,
2013-08-12 18:06:00,70.3,67.5,29.71,SSW,202,0.0,-999.0,91,-99.99,,,0.29,Acu-Link.com,2013-08-12 22:06:00,
2013-08-12 18:22:00,70.9,68.1,29.71,SW,225,0.0,-999.0,91,-99.99,,,0.29,Acu-Link.com,2013-08-12 22:22:00,
2013-08-12 18:37:00,70.9,68.1,29.70,SW,225,0.0,-999.0,91,-99.99,,,0.29,Acu-Link.com,2013-08-12 22:37:00,
2013-08-12 18:52:00,71.2,68.4,29.70,NE,45,0.0,-999.0,91,-99.99,,,0.29,Acu-Link.com,2013-08-12 22:52:00,
2013-08-12 19:07:00,71.4,68.6,29.70,NNE,22,0.0,-999.0,91,-99.99,,,0.29,Acu-Link.com,2013-08-12 23:07:00,
2013-08-12 19:22:00,71.2,68.4,29.70,NNE,22,0.0,-999.0,91,-99.99,,,0.29,Acu-Link.com,2013-08-12 23:22:00,
2013-08-12 19:38:00,71.2,68.4,29.70,South,180,0.0,-999.0,91,-99.99,,,0.29,Acu-Link.com,2013-08-12 23:38:00,
2013-08-12 19:53:00,71.1,68.3,29.70,WSW,247,0.0,-999.0,91,-99.99,,,0.29,Acu-Link.com,2013-08-12 23:53:00,
2013-08-12 20:08:00,70.9,68.1,29.70,WSW,247,0.0,-999.0,91,-99.99,,,0.29,Acu-Link.com,2013-08-13 00:08:00,
2013-08-12 20:24:00,70.9,68.1,29.71,SW,225,0.0,-999.0,91,-99.99,,,0.29,Acu-Link.com,2013-08-13 00:24:00,
2013-08-12 20:39:00,70.3,67.5,29.71,WSW,247,0.0,-999.0,91,-99.99,,,0.29,Acu-Link.com,2013-08-13 00:39:00,
2013-08-12 20:54:00,70.2,67.4,29.71,WSW,247,0.0,-999.0,91,-99.99,,,0.29,Acu-Link.com,2013-08-13 00:54:00,
2013-08-12 21:10:00,70.2,67.4,29.71,East,90,0.0,-999.0,91,-99.99,,,0.29,Acu-Link.com,2013-08-13 01:10:00,
2013-08-12 21:25:00,70.0,67.2,29.71,South,180,0.0,-999.0,91,-99.99,,,0.29,Acu-Link.com,2013-08-13 01:25:00,
2013-08-12 21:40:00,69.6,66.9,29.72,South,180,0.0,-999.0,91,-99.99,,,0.29,Acu-Link.com,2013-08-13 01:40:00,
2013-08-12 21:55:00,69.4,66.7,29.72,South,180,0.0,-999.0,91,-99.99,,,0.29,Acu-Link.com,2013-08-13 01:55:00,
2013-08-12 22:10:00,69.1,66.4,29.72,SSW,202,0.0,-999.0,91,-99.99,,,0.29,Acu-Link.com,2013-08-13 02:10:00,
2013-08-12 22:25:00,69.3,66.6,29.72,NNE,22,0.0,-999.0,91,-99.99,,,0.29,Acu-Link.com,2013-08-13 02:25:00,
2013-08-12 22:41:00,69.3,66.6,29.72,NNE,22,0.0,-999.0,91,-99.99,,,0.29,Acu-Link.com,2013-08-13 02:41:00,
2013-08-12 22:56:00,69.3,66.6,29.72,NNE,22,0.0,-999.0,91,-99.99,,,0.29,Acu-Link.com,2013-08-13 02:56:00,
2013-08-12 23:11:00,69.1,66.4,29.71,ESE,112,0.0,-999.0,91,-99.99,,,0.29,Acu-Link.com,2013-08-13 03:11:00,
2013-08-12 23:26:00,69.1,66.4,29.71,SE,135,0.0,-999.0,91,-99.99,,,0.29,Acu-Link.com,2013-08-13 03:26:00,
2013-08-12 23:42:00,68.9,66.2,29.71,SE,135,0.0,-999.0,91,-99.99,,,0.29,Acu-Link.com,2013-08-13 03:42:00,
2013-08-12 23:57:00,68.9,66.2,29.70,ENE,67,0.0,-999.0,91,-99.99,,,0.29,Acu-Link.com,2013-08-13 03:57:00,